Bangor, ME

11:19 AM EST on December 14, 2019 (GMT -0500)
Bangor International

Weather History for KBGR - October, 2019

Change the Weather History Date:

Saturday, October 12, 2019

  Actual Average Record
Temperature  
Mean Temperature 52 °F 48 °F  
Max Temperature 55 °F 59 °F 88 °F (1930)
Min Temperature 49 °F 38 °F 20 °F (1945)
Degree Days  
Heating Degree Days 13 17  
Month to date heating degree days 169 174  
Since 1 July heating degree days 383 446  
Cooling Degree Days 0 0  
Month to date cooling degree days 0 0  
Year to date cooling degree days 336 317  
Growing Degree Days 2 (Base 50)    
Moisture  
Dew Point 50 °F    
Average Humidity 95    
Maximum Humidity 100    
Minimum Humidity 89    
Precipitation  
Precipitation 0.17 in 0.13 in 2.24 in (2007)
Month to date precipitation 1.65 1.65  
Year to date precipitation 40.67 31.73  
Snow  
Snow 0.00 in 0.00 in 0.00 in (2002)
Month to date snowfall 0.0 0.0  
Since 1 July snowfall 0.0 0.0  
Since 1 September snowfall 0.0 0.0  
Snow Depth 0.00 in    
Sea Level Pressure  
Sea Level Pressure 30.00 in    
Wind  
Wind Speed 9 mph (NNE)    
Max Wind Speed 17 mph    
Max Gust Speed 23 mph    
Visibility 4 miles    
Events Rain    
T = Trace of Precipitation, MM = Missing Value Source: NWS Daily Summary

Daily Weather History Graph

Daily Weather History Graph

Search for Another Location

Airport or City:

Astronomy

Oct. 12, 2019 Rise Set
Actual Time 6:46 AM EDT 5:56 PM EDT
Civil Twilight 6:17 AM EDT 6:25 PM EDT
Nautical Twilight 5:43 AM EDT 6:59 PM EDT
Astronomical Twilight 5:09 AM EDT 7:33 PM EDT
Moon 5:55 PM EDT (10/12) 5:13 AM EDT (10/12)
Length of Visible Light 12h 08m
Length of Day
11h 09m
Waxing Gibbous, 99% of the Moon is Illuminated
Oct 12
Waxing Gibbous
Oct 13
Full
Oct 21
Last Quarter
Oct 27
New
Nov 4
First Quarter

Hourly Weather History & Observations

Time (EDT) Temp. Dew Point Humidity Pressure Visibility Wind Dir Wind Speed Gust Speed Precip Events Conditions
12:53 AM 53.1 °F 45.0 °F 74% 30.16 in 10.0 mi NE 11.5 mph - 0.00 in   Overcast
1:53 AM 50.0 °F 48.0 °F 93% 30.13 in 6.0 mi NNE 9.2 mph - 0.00 in   Overcast
2:53 AM 50.0 °F 46.9 °F 89% 30.11 in 6.0 mi NE 10.4 mph - 0.00 in Rain Light Rain
3:53 AM 48.9 °F 46.9 °F 93% 30.09 in 5.0 mi NNE 8.1 mph - 0.00 in Rain Light Rain
4:53 AM 48.9 °F 48.0 °F 97% 30.07 in 4.0 mi NNE 10.4 mph - 0.01 in   Light Drizzle
5:44 AM 48.9 °F 48.0 °F 97% 30.06 in 1.8 mi NNE 8.1 mph - 0.03 in Rain Rain
5:53 AM 48.9 °F 48.0 °F 97% 30.06 in 2.0 mi NNE 10.4 mph - 0.04 in Rain Light Rain
6:23 AM 48.9 °F 48.0 °F 97% 30.05 in 2.0 mi NNE 10.4 mph - 0.04 in Rain Light Rain
6:36 AM 48.9 °F 48.0 °F 97% 30.05 in 3.0 mi NNE 9.2 mph - 0.05 in Rain Light Rain
6:53 AM 48.9 °F 48.0 °F 97% 30.04 in 3.0 mi North 10.4 mph - 0.06 in Rain Light Rain
7:39 AM 48.9 °F 48.0 °F 97% 30.04 in 2.0 mi NNE 10.4 mph - 0.02 in Rain Light Rain
7:46 AM 48.9 °F 48.0 °F 97% 30.04 in 1.8 mi North 8.1 mph - 0.02 in Rain Light Rain
7:53 AM 48.9 °F 48.0 °F 97% 30.04 in 1.5 mi NNE 9.2 mph - 0.03 in Rain Light Rain
8:53 AM 50.0 °F 48.9 °F 96% 30.04 in 1.5 mi North 8.1 mph - 0.01 in Rain Light Rain
9:53 AM 51.1 °F 48.9 °F 92% 30.03 in 1.5 mi NNE 11.5 mph - 0.00 in Rain Light Rain
10:48 AM 51.8 °F 50.0 °F 94% 30.00 in 2.0 mi NNE 13.8 mph - 0.01 in Rain Light Rain
10:53 AM 52.0 °F 50.0 °F 93% 30.00 in 2.0 mi NNE 9.2 mph - 0.01 in Rain Light Rain
11:53 AM 52.0 °F 51.1 °F 97% 29.99 in 2.0 mi North 10.4 mph - 0.00 in   Overcast
12:48 PM 53.6 °F 51.8 °F 94% 29.98 in 1.0 mi North 8.1 mph - N/A   Overcast
12:53 PM 53.1 °F 52.0 °F 96% 29.97 in 1.0 mi North 10.4 mph - N/A   Overcast
1:53 PM 54.0 °F 53.1 °F 97% 29.96 in 2.0 mi NNE 9.2 mph - 0.00 in Rain Light Rain
2:49 PM 55.4 °F 51.8 °F 88% 29.95 in 2.0 mi NNE 8.1 mph - 0.00 in Rain Light Rain
2:53 PM 54.0 °F 52.0 °F 93% 29.95 in 2.0 mi North 10.4 mph - 0.00 in Rain Light Rain
3:36 PM 54.0 °F 52.0 °F 93% 29.94 in 1.5 mi North 8.1 mph - 0.00 in   Light Drizzle
3:53 PM 54.0 °F 52.0 °F 93% 29.94 in 2.0 mi North 9.2 mph - 0.00 in   Light Drizzle
4:29 PM 54.0 °F 52.0 °F 93% 29.94 in 2.0 mi NNE 9.2 mph - 0.01 in   Overcast
4:53 PM 54.0 °F 52.0 °F 93% 29.94 in 5.0 mi NNE 9.2 mph - 0.01 in   Overcast
5:24 PM 53.1 °F 52.0 °F 96% 29.93 in 5.0 mi NNE 8.1 mph - 0.00 in   Overcast
5:53 PM 53.1 °F 52.0 °F 96% 29.94 in 5.0 mi North 8.1 mph - 0.00 in   Light Drizzle
6:30 PM 52.0 °F 51.1 °F 97% 29.94 in 7.0 mi NNE 8.1 mph - 0.00 in   Overcast
6:53 PM 52.0 °F 51.1 °F 97% 29.95 in 8.0 mi North 5.8 mph - 0.00 in   Mostly Cloudy
7:53 PM 53.1 °F 51.1 °F 93% 29.94 in 8.0 mi North 5.8 mph - N/A   Overcast
8:53 PM 52.0 °F 51.1 °F 97% 29.94 in 10.0 mi North 5.8 mph - N/A   Overcast
9:53 PM 52.0 °F 50.0 °F 93% 29.95 in 10.0 mi North 3.5 mph - N/A   Overcast
10:33 PM 51.1 °F 50.0 °F 96% 29.94 in 10.0 mi NW 3.5 mph - N/A   Overcast
10:53 PM 52.0 °F 50.0 °F 93% 29.94 in 10.0 mi NNW 5.8 mph - N/A   Overcast
11:53 PM 52.0 °F 48.9 °F 89% 29.94 in 10.0 mi NNW 6.9 mph - N/A   Overcast